This demonstration page uses our WeatherBlox Daily Observations layout. Learn more.

Left ArrowRight Arrow

39.29038, -76.61219

Hourly Observations for January 18, 2022

Temp ( °F °C ) Dew Point ( °F °C ) Humidity (%) Winds ( mph kmh ) Pressure ( in mb ) Visibility ( mi km ) Precip ( " mm )
12:54 am 00:54 Cloudy 34 1.1 19 -7.2 54 54 WNW 18 30 29.71 1006 10 16 0.00 0.00
1:54 am 01:54 Cloudy 34 1.1 20 -6.7 56 56 W 15 24 29.75 1008 10 16 0.00 0.00
2:54 am 02:54 Cloudy 34 1.1 20 -6.7 56 56 W 17 28 29.80 1009 10 16 0.00 0.00
3:54 am 03:54 Cloudy 34 1.1 21 -6.1 59 59 W 13 20 29.82 1010 10 16 0.00 0.00
4:54 am 04:54 Mostly Cloudy 33 0.6 20 -6.7 58 58 W 12 19 29.84 1011 10 16 0.00 0.00
5:54 am 05:54 Cloudy 34 1.1 20 -6.7 56 56 W 10 17 29.88 1012 10 16 0.00 0.00
6:54 am 06:54 Mostly Cloudy 34 1.1 20 -6.7 56 56 WSW 7 11 29.91 1013 10 16 0.00 0.00
7:54 am 07:54 Mostly Cloudy 34 1.1 21 -6.1 59 59 W 12 19 29.94 1014 10 16 0.00 0.00
8:54 am 08:54 Mostly Cloudy 36 2.2 21 -6.1 55 55 W 14 22 29.98 1015 10 16 0.00 0.00
9:54 am 09:54 Cloudy 37 2.8 22 -5.6 54 54 WNW 17 28 30.01 1016 10 16 0.00 0.00
10:54 am 10:54 Mostly Cloudy 37 2.8 21 -6.1 52 52 W 12 19 30.05 1018 10 16 0.00 0.00
11:54 am 11:54 Mostly Cloudy 39 3.9 22 -5.6 50 50 W 21 33 30.05 1018 10 16 0.00 0.00
12:54 pm 12:54 Mostly Cloudy 39 3.9 20 -6.7 46 46 W 16 26 30.06 1018 10 16 0.00 0.00
1:54 pm 13:54 Mostly Cloudy 39 3.9 22 -5.6 50 50 WSW 13 20 30.06 1018 10 16 0.00 0.00
2:54 pm 14:54 Mostly Cloudy 39 3.9 21 -6.1 48 48 W 12 19 30.09 1019 10 16 0.00 0.00
3:54 pm 15:54 Mostly Cloudy 39 3.9 20 -6.7 46 46 W 14 22 30.10 1019 10 16 0.00 0.00
4:54 pm 16:54 Partly Cloudy 37 2.8 18 -7.8 46 46 WNW 13 20 30.13 1020 10 16 0.00 0.00
5:54 pm 17:54 Mostly Clear 34 1.1 19 -7.2 54 54 W 8 13 30.15 1021 10 16 0.00 0.00
6:54 pm 18:54 Mostly Clear 31 -0.6 19 -7.2 61 61 WSW 3 6 30.18 1022 10 16 0.00 0.00
7:54 pm 19:54 Clear 30 -1.1 19 -7.2 64 64 W 5 7 30.16 1022 10 16 0.00 0.00
8:54 pm 20:54 Clear 30 -1.1 19 -7.2 64 64 S 3 6 30.18 1022 10 16 0.00 0.00
9:54 pm 21:54 Clear 27 -2.8 19 -7.2 72 72 Calm 30.19 1022 10 16 0.00 0.00
10:54 pm 22:54 Mostly Clear 27 -2.8 19 -7.2 72 72 S 3 6 30.19 1022 10 16 0.00 0.00
11:54 pm 23:54 Mostly Cloudy 31 -0.6 19 -7.2 61 61 Calm 30.20 1023 10 16 0.00 0.00

Powered by AerisWeather